This is the latest recevied weather packets stored in our database for station/object KC1HBM. If no packets are shown the sender has not sent any weather packets the latest 10 day(s).
| Time | Temp. | Humidity | Pressure | Rain* | Wind** | Luminosity | Snow |
|---|---|---|---|---|---|---|---|
| 1778087655 | 12.78° C | 89% | 1005.1 hPa | 0 mm | - | 55 W/m² | - |
| 1778087352 | 12.78° C | 90% | 1005.2 hPa | 0 mm | - | 65 W/m² | - |
| 1778087047 | 12.78° C | 90% | 1005.2 hPa | 0 mm | - | 72 W/m² | - |
| 1778086742 | 12.78° C | 90% | 1005.4 hPa | 0 mm | - | 58 W/m² | - |
| 1778086440 | 12.78° C | 89% | 1005.4 hPa | 0 mm | - | 49 W/m² | - |
| 1778086135 | 13.33° C | 88% | 1005.5 hPa | 0 mm | - | 49 W/m² | - |
| 1778085832 | 13.33° C | 88% | 1005.5 hPa | 0 mm | - | 66 W/m² | - |
| 1778085530 | 13.33° C | 88% | 1005.8 hPa | 0 mm | - | 67 W/m² | - |
| 1778085224 | 13.89° C | 88% | 1005.7 hPa | 0 mm | - | 69 W/m² | - |
| 1778084920 | 13.89° C | 87% | 1006 hPa | 0 mm | - | 81 W/m² | - |
| 1778084618 | 14.44° C | 87% | 1006.2 hPa | 0 mm | - | 88 W/m² | - |
| 1778084315 | 14.44° C | 87% | 1006.3 hPa | 0 mm | - | 82 W/m² | - |
| 1778084011 | 14.44° C | 87% | 1006.2 hPa | 0 mm | - | 86 W/m² | - |
| 1778083704 | 15° C | 85% | 1006.2 hPa | 0 mm | - | 114 W/m² | - |
| 1778083400 | 14.44° C | 86% | 1006.2 hPa | 0 mm | - | 147 W/m² | - |
| 1778083099 | 14.44° C | 86% | 1006.6 hPa | 0 mm | - | 196 W/m² | - |
| 1778082795 | 14.44° C | 87% | 1006.5 hPa | 0 mm | - | 163 W/m² | - |
| 1778081668 | 13.89° C | 89% | 1006.6 hPa | 0 mm | - | 108 W/m² | - |
| 1778081365 | 13.89° C | 89% | 1006.8 hPa | 0 mm | - | 92 W/m² | - |
| 1778081062 | 13.89° C | 88% | 1006.7 hPa | 0 mm | - | 96 W/m² | - |
| 1778080761 | 13.89° C | 89% | 1006.7 hPa | 0 mm | - | 128 W/m² | - |
| 1778080457 | 13.89° C | 88% | 1006.8 hPa | 0 mm | - | 147 W/m² | - |
| 1778080155 | 13.89° C | 89% | 1006.6 hPa | 0 mm | - | 187 W/m² | - |
| 1778079851 | 13.89° C | 89% | 1006.7 hPa | 0 mm | - | 131 W/m² | - |
| 1778079548 | 13.89° C | 88% | 1006.8 hPa | 0 mm | - | 106 W/m² | - |
* Rain latest hour (hover to see other rain measurements)
** Current wind speed in m/s (hover to see current wind gust speed)